SKW5426 KLAX-KACV

Flight info

Callsign SKW5426
Flight time 1h 38m
Altitude 32000
Route SUMMR2 SCTRR SNS ENI YAGER
Aircraft E75L/M-SDE3GILORVW/S

Departure

Time 2026-04-25 02:21
Airport Los Angeles International Airport (KLAX)

Arrival

Time 2026-04-25 03:59
Airport California Redwood Coast-Humboldt County Airport (KACV)
Time Latitude Longitude Altitude Speed Heading
2026-04-25 02:02 33.94159 -118.40023 92 ft 0 kts 90°
2026-04-25 02:02 33.94159 -118.40031 92 ft 0 kts 90°
2026-04-25 02:07 33.94159 -118.40032 91 ft 2 kts 91°
2026-04-25 02:07 33.94160 -118.40046 92 ft 4 kts 95°
2026-04-25 02:08 33.94167 -118.40076 91 ft 4 kts 126°
2026-04-25 02:08 33.94185 -118.40089 95 ft 1 kts 173°
2026-04-25 02:11 33.94165 -118.40086 92 ft 6 kts 172°
2026-04-25 02:11 33.94120 -118.40078 91 ft 8 kts 171°
2026-04-25 02:11 33.94064 -118.40071 91 ft 9 kts 174°
2026-04-25 02:12 33.94025 -118.40066 91 ft 0 kts 176°
2026-04-25 02:12 33.94021 -118.40066 91 ft 1 kts 176°
2026-04-25 02:12 33.94017 -118.40065 93 ft 0 kts 176°
2026-04-25 02:13 33.94006 -118.40064 91 ft 3 kts 175°
2026-04-25 02:13 33.93977 -118.40061 91 ft 5 kts 175°
2026-04-25 02:13 33.93928 -118.40054 92 ft 8 kts 172°
2026-04-25 02:13 33.93893 -118.40041 93 ft 4 kts 129°
2026-04-25 02:14 33.93881 -118.39977 94 ft 11 kts 86°
2026-04-25 02:14 33.93890 -118.39877 94 ft 13 kts 84°
2026-04-25 02:14 33.93898 -118.39754 95 ft 16 kts 86°
2026-04-25 02:14 33.93912 -118.39616 95 ft 18 kts 81°
2026-04-25 02:15 33.93934 -118.39461 92 ft 20 kts 80°
2026-04-25 02:15 33.93955 -118.39285 92 ft 22 kts 84°
2026-04-25 02:15 33.93973 -118.39093 93 ft 24 kts 83°
2026-04-25 02:15 33.93996 -118.38889 92 ft 25 kts 82°
2026-04-25 02:16 33.94017 -118.38683 92 ft 20 kts 84°
2026-04-25 02:16 33.94032 -118.38513 93 ft 21 kts 83°
2026-04-25 02:16 33.94041 -118.38411 95 ft 11 kts 84°
2026-04-25 02:16 33.94049 -118.38316 93 ft 12 kts 84°
2026-04-25 02:17 33.94057 -118.38216 92 ft 14 kts 84°
2026-04-25 02:17 33.94067 -118.38111 91 ft 8 kts 81°
2026-04-25 02:17 33.94076 -118.38048 91 ft 6 kts 82°
2026-04-25 02:17 33.94076 -118.38034 91 ft 0 kts 100°
2026-04-25 02:19 33.94076 -118.38032 91 ft 1 kts 101°
2026-04-25 02:19 33.94062 -118.38008 92 ft 8 kts 146°
2026-04-25 02:19 33.94003 -118.37993 91 ft 9 kts 172°
2026-04-25 02:19 33.93982 -118.38008 91 ft 2 kts 265°
2026-04-25 02:20 33.93982 -118.38010 91 ft 1 kts 266°
2026-04-25 02:20 33.93982 -118.38016 91 ft 3 kts 266°
2026-04-25 02:20 33.93973 -118.38126 92 ft 37 kts 262°
2026-04-25 02:20 33.93908 -118.38762 93 ft 115 kts 263°
2026-04-25 02:21 33.93780 -118.39959 413 ft 153 kts 263°
2026-04-25 02:21 33.93611 -118.41215 1448 ft 147 kts 259°
2026-04-25 02:21 33.93421 -118.42461 1778 ft 152 kts 260°
2026-04-25 02:21 33.93228 -118.43827 2125 ft 172 kts 260°
2026-04-25 02:22 33.93050 -118.45243 2835 ft 171 kts 263°
2026-04-25 02:22 33.92967 -118.46708 3394 ft 182 kts 267°
2026-04-25 02:22 33.92903 -118.48331 3843 ft 203 kts 266°
2026-04-25 02:22 33.92792 -118.50145 4320 ft 227 kts 264°
2026-04-25 02:23 33.92624 -118.52094 4947 ft 242 kts 263°
2026-04-25 02:23 33.92424 -118.54162 5615 ft 253 kts 263°
2026-04-25 02:23 33.92246 -118.56307 6322 ft 261 kts 263°
2026-04-25 02:23 33.92036 -118.58517 6982 ft 269 kts 263°
2026-04-25 02:24 33.91867 -118.60771 7791 ft 271 kts 265°
2026-04-25 02:24 33.91718 -118.63025 8505 ft 274 kts 265°
2026-04-25 02:24 33.91653 -118.65314 9321 ft 273 kts 270°
2026-04-25 02:24 33.91697 -118.67602 10068 ft 272 kts 270°
2026-04-25 02:25 33.91722 -118.69940 10433 ft 287 kts 270°
2026-04-25 02:25 33.91729 -118.72394 10797 ft 298 kts 270°
2026-04-25 02:25 33.91727 -118.74911 11468 ft 302 kts 269°
2026-04-25 02:25 33.91721 -118.77442 12475 ft 302 kts 269°
2026-04-25 02:26 33.91712 -118.79973 13609 ft 301 kts 269°
2026-04-25 02:26 33.91702 -118.82464 14622 ft 301 kts 269°
2026-04-25 02:26 33.91707 -118.84992 15658 ft 303 kts 271°
2026-04-25 02:26 33.91792 -118.87535 16628 ft 305 kts 271°
2026-04-25 02:27 33.91883 -118.90105 17539 ft 308 kts 271°
2026-04-25 02:27 33.91969 -118.92697 18398 ft 311 kts 271°
2026-04-25 02:27 33.92050 -118.95319 19117 ft 315 kts 271°
2026-04-25 02:27 33.92129 -118.97977 19828 ft 319 kts 271°
2026-04-25 02:28 33.92299 -119.00657 20564 ft 323 kts 280°
2026-04-25 02:28 33.93137 -119.03195 21310 ft 331 kts 296°
2026-04-25 02:28 33.94325 -119.05597 22038 ft 334 kts 296°
2026-04-25 02:28 33.95504 -119.07986 22704 ft 338 kts 297°
2026-04-25 02:29 33.96734 -119.10419 23354 ft 341 kts 297°
2026-04-25 02:29 33.97990 -119.12861 23922 ft 344 kts 297°
2026-04-25 02:29 33.99264 -119.15312 24443 ft 347 kts 297°
2026-04-25 02:29 34.00610 -119.17743 24963 ft 353 kts 304°
2026-04-25 02:30 34.02465 -119.19768 25509 ft 365 kts 317°
2026-04-25 02:30 34.04483 -119.21547 26129 ft 365 kts 316°
2026-04-25 02:30 34.06544 -119.23365 26636 ft 368 kts 316°
2026-04-25 02:30 34.08626 -119.25185 27115 ft 372 kts 317°
2026-04-25 02:31 34.10743 -119.27024 27540 ft 376 kts 317°
2026-04-25 02:31 34.12875 -119.28870 27998 ft 379 kts 317°
2026-04-25 02:31 34.15027 -119.30729 28458 ft 381 kts 317°
2026-04-25 02:31 34.17195 -119.32602 28896 ft 384 kts 317°
2026-04-25 02:32 34.19353 -119.34464 29321 ft 387 kts 317°
2026-04-25 02:32 34.21546 -119.36358 29805 ft 388 kts 316°
2026-04-25 02:32 34.23749 -119.38258 30220 ft 390 kts 317°
2026-04-25 02:32 34.25991 -119.40130 30558 ft 392 kts 316°
2026-04-25 02:33 34.28209 -119.42058 30884 ft 394 kts 316°
2026-04-25 02:33 34.30437 -119.44004 31206 ft 396 kts 315°
2026-04-25 02:33 34.32675 -119.45952 31514 ft 398 kts 315°
2026-04-25 02:33 34.34937 -119.47913 31826 ft 400 kts 315°
2026-04-25 02:34 34.37223 -119.49895 31868 ft 409 kts 315°
2026-04-25 02:34 34.41944 -119.53989 31916 ft 425 kts 315°
2026-04-25 02:35 34.46614 -119.58384 31940 ft 424 kts 313°
2026-04-25 02:35 34.51255 -119.62794 31898 ft 422 kts 314°
2026-04-25 02:36 34.55910 -119.67189 31902 ft 424 kts 314°
2026-04-25 02:36 34.60524 -119.71552 31903 ft 423 kts 314°
2026-04-25 02:37 34.65168 -119.75972 31922 ft 423 kts 313°
2026-04-25 02:37 34.69813 -119.80370 31946 ft 420 kts 313°
2026-04-25 02:38 34.74433 -119.84732 31943 ft 425 kts 314°
2026-04-25 02:38 34.79062 -119.89133 31943 ft 421 kts 313°
2026-04-25 02:39 34.83692 -119.93550 31891 ft 422 kts 313°
2026-04-25 02:39 34.88300 -119.97922 31949 ft 421 kts 313°
2026-04-25 02:40 34.92861 -120.02376 31996 ft 421 kts 313°
2026-04-25 02:40 34.97499 -120.06759 31943 ft 420 kts 314°
2026-04-25 02:41 35.02114 -120.11156 31985 ft 421 kts 313°
2026-04-25 02:41 35.06738 -120.15587 31972 ft 422 kts 314°
2026-04-25 02:42 35.11358 -120.20020 31985 ft 422 kts 314°
2026-04-25 02:42 35.15946 -120.24421 31964 ft 422 kts 314°
2026-04-25 02:43 35.20601 -120.28799 31980 ft 423 kts 315°
2026-04-25 02:43 35.25332 -120.33091 31978 ft 423 kts 315°
2026-04-25 02:44 35.30046 -120.37394 31937 ft 421 kts 315°
2026-04-25 02:44 35.34732 -120.41688 31989 ft 422 kts 315°
2026-04-25 02:45 35.39435 -120.46008 31972 ft 423 kts 315°
2026-04-25 02:45 35.44150 -120.50347 31974 ft 423 kts 315°
2026-04-25 02:46 35.48858 -120.54677 31982 ft 420 kts 315°
2026-04-25 02:46 35.53518 -120.58976 31967 ft 421 kts 315°
2026-04-25 02:47 35.58304 -120.63188 31974 ft 423 kts 316°
2026-04-25 02:47 35.63099 -120.67394 32003 ft 423 kts 316°
2026-04-25 02:48 35.67828 -120.71565 31972 ft 420 kts 316°
2026-04-25 02:48 35.72577 -120.75767 31976 ft 421 kts 316°
2026-04-25 02:49 35.76535 -120.79272 31974 ft 420 kts 316°
2026-04-25 02:49 35.81289 -120.83489 31969 ft 419 kts 317°
2026-04-25 02:50 35.86010 -120.87683 31954 ft 418 kts 316°
2026-04-25 02:50 35.90728 -120.91881 31948 ft 418 kts 316°
2026-04-25 02:51 35.95412 -120.96056 31943 ft 418 kts 316°
2026-04-25 02:51 36.00145 -121.00279 31947 ft 417 kts 317°
2026-04-25 02:52 36.04858 -121.04487 31941 ft 418 kts 317°
2026-04-25 02:52 36.09534 -121.08673 31953 ft 417 kts 317°
2026-04-25 02:53 36.14237 -121.12892 31959 ft 418 kts 317°
2026-04-25 02:53 36.18949 -121.17123 31953 ft 418 kts 317°
2026-04-25 02:54 36.23664 -121.21362 31968 ft 418 kts 317°
2026-04-25 02:54 36.28330 -121.25565 31978 ft 418 kts 317°
2026-04-25 02:55 36.33040 -121.29813 31975 ft 418 kts 317°
2026-04-25 02:55 36.37753 -121.34070 31986 ft 418 kts 317°
2026-04-25 02:56 36.42456 -121.38324 31983 ft 418 kts 317°
2026-04-25 02:56 36.47131 -121.42559 32000 ft 418 kts 316°
2026-04-25 02:57 36.51841 -121.46835 32001 ft 419 kts 317°
2026-04-25 02:57 36.56550 -121.51114 31995 ft 419 kts 317°
2026-04-25 02:58 36.61252 -121.55394 31987 ft 418 kts 317°
2026-04-25 02:58 36.65927 -121.59643 31986 ft 420 kts 319°
2026-04-25 02:59 36.71117 -121.63279 31989 ft 425 kts 324°
2026-04-25 02:59 36.76284 -121.66777 31994 ft 426 kts 324°
2026-04-25 03:00 36.81503 -121.70306 31993 ft 426 kts 324°
2026-04-25 03:00 36.86723 -121.73837 31991 ft 427 kts 324°
2026-04-25 03:01 36.91958 -121.77382 31986 ft 427 kts 324°
2026-04-25 03:01 36.97155 -121.80907 31978 ft 424 kts 324°
2026-04-25 03:02 37.02372 -121.84454 31992 ft 427 kts 324°
2026-04-25 03:02 37.07605 -121.88017 31998 ft 428 kts 324°
2026-04-25 03:03 37.12849 -121.91593 31970 ft 428 kts 324°
2026-04-25 03:03 37.18055 -121.95135 31971 ft 430 kts 325°
2026-04-25 03:04 37.23342 -121.98760 31975 ft 434 kts 325°
2026-04-25 03:04 37.28649 -122.02396 31964 ft 434 kts 325°
2026-04-25 03:05 37.36624 -122.07872 31969 ft 437 kts 325°
2026-04-25 03:05 37.41950 -122.11529 31970 ft 438 kts 328°
2026-04-25 03:06 37.47576 -122.14534 31970 ft 442 kts 331°
2026-04-25 03:06 37.53268 -122.17506 31968 ft 445 kts 332°
2026-04-25 03:07 37.58975 -122.20572 31974 ft 446 kts 332°
2026-04-25 03:07 37.64737 -122.23556 31973 ft 446 kts 332°
2026-04-25 03:08 37.70495 -122.26528 31963 ft 449 kts 333°
2026-04-25 03:08 37.76288 -122.29531 31973 ft 450 kts 333°
2026-04-25 03:09 37.82041 -122.32540 31971 ft 450 kts 333°
2026-04-25 03:09 37.87832 -122.35584 31962 ft 451 kts 333°
2026-04-25 03:10 37.93620 -122.38659 31962 ft 451 kts 333°
2026-04-25 03:10 37.99408 -122.41722 31954 ft 451 kts 333°
2026-04-25 03:11 38.05177 -122.44764 31955 ft 451 kts 333°
2026-04-25 03:11 38.10975 -122.47804 31954 ft 451 kts 333°
2026-04-25 03:12 38.16765 -122.50864 31955 ft 451 kts 333°
2026-04-25 03:12 38.22562 -122.53941 31951 ft 452 kts 333°
2026-04-25 03:13 38.28377 -122.57033 31949 ft 453 kts 333°
2026-04-25 03:13 38.34157 -122.60113 31947 ft 453 kts 333°
2026-04-25 03:14 38.39983 -122.63223 31951 ft 453 kts 333°
2026-04-25 03:14 38.45796 -122.66331 31943 ft 453 kts 333°
2026-04-25 03:15 38.51605 -122.69443 31935 ft 453 kts 333°
2026-04-25 03:15 38.57425 -122.72565 31945 ft 453 kts 334°
2026-04-25 03:16 38.63198 -122.75669 31957 ft 454 kts 333°
2026-04-25 03:16 38.69014 -122.78800 31892 ft 453 kts 333°
2026-04-25 03:17 38.74821 -122.81934 31911 ft 452 kts 334°
2026-04-25 03:17 38.80635 -122.85078 31921 ft 453 kts 334°
2026-04-25 03:18 38.86447 -122.88223 31907 ft 453 kts 334°
2026-04-25 03:18 38.92255 -122.91372 31906 ft 453 kts 334°
2026-04-25 03:19 38.98065 -122.94528 31913 ft 453 kts 334°
2026-04-25 03:19 39.03841 -122.97671 31919 ft 453 kts 334°
2026-04-25 03:20 39.09647 -123.00835 31925 ft 453 kts 334°
2026-04-25 03:20 39.15457 -123.04009 31927 ft 453 kts 333°
2026-04-25 03:21 39.21264 -123.07188 31931 ft 453 kts 334°
2026-04-25 03:21 39.27071 -123.10371 31918 ft 453 kts 334°
2026-04-25 03:22 39.32847 -123.13543 31920 ft 453 kts 334°
2026-04-25 03:22 39.38651 -123.16737 31888 ft 452 kts 333°
2026-04-25 03:23 39.44416 -123.19914 31900 ft 453 kts 333°
2026-04-25 03:23 39.50223 -123.23120 31904 ft 453 kts 333°
2026-04-25 03:24 39.56024 -123.26330 31898 ft 452 kts 333°
2026-04-25 03:24 39.61819 -123.29540 31918 ft 452 kts 333°
2026-04-25 03:25 39.67603 -123.32752 31908 ft 452 kts 333°
2026-04-25 03:25 39.73390 -123.35975 31908 ft 453 kts 333°
2026-04-25 03:26 39.79180 -123.39197 31923 ft 452 kts 333°
2026-04-25 03:26 39.84962 -123.42425 31930 ft 452 kts 333°
2026-04-25 03:27 39.90742 -123.45655 31914 ft 452 kts 333°
2026-04-25 03:27 39.96482 -123.48879 31923 ft 452 kts 333°
2026-04-25 03:28 40.02268 -123.52122 31916 ft 452 kts 333°
2026-04-25 03:28 40.08054 -123.55373 31930 ft 452 kts 333°
2026-04-25 03:29 40.13836 -123.58631 31935 ft 452 kts 333°
2026-04-25 03:29 40.19580 -123.61874 31932 ft 452 kts 333°
2026-04-25 03:30 40.25366 -123.65143 31936 ft 452 kts 333°
2026-04-25 03:30 40.31153 -123.68408 31939 ft 453 kts 333°
2026-04-25 03:31 40.36917 -123.71679 31924 ft 441 kts 333°
2026-04-25 03:31 40.39671 -123.73243 31871 ft 420 kts 333°
2026-04-25 03:31 40.42285 -123.74730 31911 ft 401 kts 333°
2026-04-25 03:32 40.47437 -123.77672 30251 ft 420 kts 333°
2026-04-25 03:32 40.50169 -123.79241 28840 ft 432 kts 334°
2026-04-25 03:32 40.52918 -123.80806 27927 ft 428 kts 334°
2026-04-25 03:33 40.55620 -123.82354 27350 ft 417 kts 334°
2026-04-25 03:33 40.58210 -123.83887 26641 ft 410 kts 334°
2026-04-25 03:33 40.60783 -123.85467 26211 ft 398 kts 334°
2026-04-25 03:33 40.63347 -123.86779 25458 ft 397 kts 341°
2026-04-25 03:34 40.65981 -123.87553 25273 ft 381 kts 352°
2026-04-25 03:34 40.68587 -123.87642 24955 ft 370 kts
2026-04-25 03:34 40.71034 -123.86755 24562 ft 364 kts 26°
2026-04-25 03:34 40.73018 -123.84778 24355 ft 351 kts 44°
2026-04-25 03:35 40.74694 -123.82451 23922 ft 347 kts 46°
2026-04-25 03:35 40.76309 -123.80137 23646 ft 338 kts 46°
2026-04-25 03:35 40.77871 -123.77906 23204 ft 334 kts 46°
2026-04-25 03:35 40.79572 -123.75881 22722 ft 329 kts 31°
2026-04-25 03:36 40.81712 -123.74869 22139 ft 328 kts
2026-04-25 03:36 40.83973 -123.75132 21541 ft 329 kts 342°
2026-04-25 03:36 40.85337 -123.75992 21131 ft 330 kts 326°
2026-04-25 03:36 40.87170 -123.79151 20150 ft 336 kts 275°
2026-04-25 03:37 40.86531 -123.80836 18517 ft 328 kts 194°
2026-04-25 03:37 40.83840 -123.78067 13530 ft 450 kts 124°
2026-04-25 03:37 40.82559 -123.75931 13236 ft 430 kts 133°
2026-04-25 03:37 40.80244 -123.73618 12663 ft 409 kts 153°
2026-04-25 03:38 40.77595 -123.72525 12048 ft 393 kts 173°
2026-04-25 03:38 40.74955 -123.72599 11263 ft 364 kts 187°
2026-04-25 03:38 40.72508 -123.72736 10360 ft 343 kts 174°
2026-04-25 03:38 40.70278 -123.71835 9342 ft 330 kts 153°
2026-04-25 03:39 40.68335 -123.70383 8288 ft 322 kts 150°
2026-04-25 03:39 40.66418 -123.68883 7146 ft 317 kts 150°
2026-04-25 03:39 40.64555 -123.67410 6614 ft 296 kts 150°
2026-04-25 03:39 40.62948 -123.66128 7546 ft 253 kts 150°
2026-04-25 03:40 40.61481 -123.64976 8661 ft 236 kts 150°
2026-04-25 03:40 40.60002 -123.63820 8699 ft 264 kts 150°
2026-04-25 03:40 40.58348 -123.62529 7808 ft 285 kts 151°
2026-04-25 03:40 40.56437 -123.61680 6932 ft 298 kts 176°
2026-04-25 03:41 40.54380 -123.62083 6253 ft 300 kts 207°
2026-04-25 03:41 40.52967 -123.63714 6893 ft 253 kts 242°
2026-04-25 03:41 40.52414 -123.65610 8012 ft 197 kts 253°
2026-04-25 03:41 40.51933 -123.67391 7355 ft 218 kts 251°
2026-04-25 03:42 40.51393 -123.69310 6984 ft 224 kts 252°
2026-04-25 03:42 40.50806 -123.71369 6280 ft 258 kts 250°
2026-04-25 03:42 40.50142 -123.73648 5426 ft 275 kts 250°
2026-04-25 03:42 40.49487 -123.75933 5697 ft 246 kts 250°
2026-04-25 03:43 40.48926 -123.77854 7080 ft 214 kts 250°
2026-04-25 03:43 40.48372 -123.79705 7951 ft 226 kts 250°
2026-04-25 03:43 40.47776 -123.81658 7841 ft 230 kts 244°
2026-04-25 03:43 40.46720 -123.83139 7635 ft 228 kts 208°
2026-04-25 03:44 40.45190 -123.83510 7448 ft 227 kts 173°
2026-04-25 03:44 40.43656 -123.83144 7333 ft 221 kts 171°
2026-04-25 03:44 40.42151 -123.82786 7148 ft 218 kts 171°
2026-04-25 03:44 40.40654 -123.82445 6917 ft 218 kts 171°
2026-04-25 03:45 40.39159 -123.82091 6662 ft 219 kts 172°
2026-04-25 03:45 40.37655 -123.81720 6438 ft 220 kts 171°
2026-04-25 03:45 40.36127 -123.81239 6127 ft 234 kts 156°
2026-04-25 03:45 40.34823 -123.79934 5908 ft 244 kts 137°
2026-04-25 03:46 40.33679 -123.78241 5805 ft 250 kts 120°
2026-04-25 03:46 40.33239 -123.76040 5779 ft 254 kts 85°
2026-04-25 03:46 40.33768 -123.73864 5807 ft 253 kts 56°
2026-04-25 03:46 40.35034 -123.72293 5736 ft 253 kts 26°
2026-04-25 03:47 40.36717 -123.71735 5725 ft 250 kts 359°
2026-04-25 03:47 40.38391 -123.72225 5741 ft 248 kts 337°
2026-04-25 03:47 40.39986 -123.73150 5674 ft 251 kts 334°
2026-04-25 03:47 40.41552 -123.74112 5673 ft 247 kts 335°
2026-04-25 03:48 40.43104 -123.75029 5698 ft 249 kts 335°
2026-04-25 03:48 40.44674 -123.75955 5707 ft 243 kts 336°
2026-04-25 03:48 40.46187 -123.76836 5664 ft 233 kts 335°
2026-04-25 03:48 40.47638 -123.77705 5630 ft 227 kts 335°
2026-04-25 03:49 40.49066 -123.78557 5621 ft 223 kts 335°
2026-04-25 03:49 40.50480 -123.79383 5710 ft 222 kts 335°
2026-04-25 03:49 40.51913 -123.80206 5746 ft 226 kts 335°
2026-04-25 03:49 40.53341 -123.81069 5720 ft 226 kts 334°
2026-04-25 03:50 40.54769 -123.81924 5728 ft 226 kts 335°
2026-04-25 03:50 40.56207 -123.82769 5716 ft 226 kts 334°
2026-04-25 03:50 40.57610 -123.83688 5730 ft 225 kts 332°
2026-04-25 03:50 40.59001 -123.84641 5734 ft 226 kts 332°
2026-04-25 03:51 40.60398 -123.85590 5728 ft 226 kts 332°
2026-04-25 03:51 40.61794 -123.86529 5734 ft 225 kts 332°
2026-04-25 03:51 40.63192 -123.87470 5735 ft 226 kts 333°
2026-04-25 03:51 40.64591 -123.88412 5731 ft 225 kts 332°
2026-04-25 03:52 40.65984 -123.89351 5719 ft 226 kts 332°
2026-04-25 03:52 40.67384 -123.90291 5742 ft 225 kts 332°
2026-04-25 03:52 40.68756 -123.91213 5792 ft 219 kts 332°
2026-04-25 03:52 40.70075 -123.92100 5680 ft 208 kts 333°
2026-04-25 03:53 40.71334 -123.92922 5661 ft 197 kts 333°
2026-04-25 03:53 40.72542 -123.93718 5640 ft 192 kts 333°
2026-04-25 03:53 40.73724 -123.94517 5736 ft 189 kts 332°
2026-04-25 03:53 40.74898 -123.95316 5778 ft 195 kts 332°
2026-04-25 03:54 40.76106 -123.96139 5797 ft 194 kts 332°
2026-04-25 03:54 40.77339 -123.96984 5312 ft 209 kts 332°
2026-04-25 03:54 40.78691 -123.97905 4495 ft 224 kts 333°
2026-04-25 03:54 40.80081 -123.98843 3944 ft 224 kts 334°
2026-04-25 03:55 40.81373 -123.99717 4002 ft 197 kts 334°
2026-04-25 03:55 40.82548 -124.00517 3970 ft 184 kts 334°
2026-04-25 03:55 40.83665 -124.01277 3942 ft 178 kts 334°
2026-04-25 03:55 40.84761 -124.02008 3927 ft 175 kts 335°
2026-04-25 03:56 40.85838 -124.02733 4109 ft 170 kts 333°
2026-04-25 03:56 40.86897 -124.03489 4068 ft 171 kts 332°
2026-04-25 03:56 40.87914 -124.04216 3483 ft 161 kts 334°
2026-04-25 03:56 40.88903 -124.04856 2921 ft 154 kts 335°
2026-04-25 03:57 40.89879 -124.05478 2221 ft 159 kts 332°
2026-04-25 03:57 40.90805 -124.06160 1877 ft 148 kts 332°
2026-04-25 03:57 40.91719 -124.06773 1593 ft 144 kts 333°
2026-04-25 03:57 40.92599 -124.07348 1402 ft 139 kts 335°
2026-04-25 03:58 40.93469 -124.07893 1171 ft 140 kts 333°
2026-04-25 03:58 40.94330 -124.08500 902 ft 142 kts 330°
2026-04-25 03:58 40.95215 -124.09094 677 ft 141 kts 334°
2026-04-25 03:58 40.96086 -124.09665 521 ft 142 kts 333°
2026-04-25 03:59 40.96959 -124.10253 292 ft 136 kts 332°
2026-04-25 03:59 40.97731 -124.10777 209 ft 107 kts 332°
2026-04-25 03:59 40.98148 -124.11073 205 ft 31 kts 329°
2026-04-25 03:59 40.98337 -124.11196 202 ft 31 kts 333°
2026-04-25 04:00 40.98491 -124.11312 202 ft 11 kts 308°
2026-04-25 04:00 40.98461 -124.11360 191 ft 8 kts 181°
2026-04-25 04:00 40.98403 -124.11346 196 ft 9 kts 165°
2026-04-25 04:00 40.98227 -124.11232 201 ft 67 kts 153°
2026-04-25 04:01 40.97785 -124.10930 211 ft 69 kts 151°
2026-04-25 04:01 40.97375 -124.10651 217 ft 58 kts 151°
2026-04-25 04:01 40.97141 -124.10565 223 ft 19 kts 225°
2026-04-25 04:01 40.97126 -124.10600 214 ft 0 kts 246°